Location: Cossonay
(46.5833°N, 6.4167°E)
Time: 21:28:32
(UTC+00:00)

CBERS-1 - Pass Details

Date: 03 October 2020
Orbit: 770 x 777 km, 98.6° (Epoch: 22 October)

Event Time Altitude Azimuth Distance (km) Brightness Sun altitude
Rises 00:43:18 0° 28° (NNE) 3,258 8.0 -44.1°
Reaches altitude 10° 00:46:17 10° 46° (NE) 2,327 7.1 -43.9°
Enters shadow 00:46:36 11° 48° (NE) 2,244 6.9 -43.8°
